Time,TemperatureF,DewpointF,PressureIn,WindDirection,WindDirectionDegrees,WindSpeedMPH,WindSpeedGustMPH,Humidity,HourlyPrecipIn,Conditions,Clouds,dailyrainin,SoftwareType,DateUTC
2013-06-21 00:00:00,63.0,51.4,30.38,West,270,0.0,10.0,66,0.00,,,-99.99,Weather View 32 v60,2013-06-21 04:00:00,
2013-06-21 00:05:00,63.0,51.0,30.38,SW,225,0.0,10.0,65,0.00,,,-99.99,Weather View 32 v60,2013-06-21 04:05:00,
2013-06-21 00:10:00,63.0,51.0,30.38,SW,225,3.0,10.0,65,0.00,,,-99.99,Weather View 32 v60,2013-06-21 04:10:00,
2013-06-21 00:13:00,63.0,51.0,30.38,SW,225,3.0,10.0,65,0.00,,,-99.99,Weather View 32 v60,2013-06-21 04:13:00,
2013-06-21 00:15:00,63.0,51.0,30.39,SW,225,0.0,10.0,65,0.00,,,-99.99,Weather View 32 v60,2013-06-21 04:15:00,
2013-06-21 00:20:00,62.0,50.1,30.39,West,270,0.0,10.0,65,0.00,,,-99.99,Weather View 32 v60,2013-06-21 04:20:00,
2013-06-21 00:30:00,62.0,50.9,30.39,SW,225,0.0,10.0,67,0.00,,,-99.99,Weather View 32 v60,2013-06-21 04:30:00,
2013-06-21 00:35:00,61.0,50.3,30.40,WNW,292,0.0,8.0,68,0.00,,,-99.99,Weather View 32 v60,2013-06-21 04:35:00,
2013-06-21 00:40:00,61.0,50.7,30.40,WNW,292,0.0,8.0,69,0.00,,,-99.99,Weather View 32 v60,2013-06-21 04:40:00,
2013-06-21 00:45:00,61.0,51.1,30.41,WNW,292,0.0,8.0,70,0.00,,,-99.99,Weather View 32 v60,2013-06-21 04:45:00,
2013-06-21 00:55:00,60.0,50.5,30.41,WNW,292,0.0,5.0,71,0.00,,,-99.99,Weather View 32 v60,2013-06-21 04:55:00,
2013-06-21 01:00:00,59.0,49.6,30.41,WNW,292,0.0,5.0,71,0.00,,,-99.99,Weather View 32 v60,2013-06-21 05:00:00,
2013-06-21 01:10:00,59.0,50.3,30.41,WNW,292,0.0,4.0,73,0.00,,,-99.99,Weather View 32 v60,2013-06-21 05:10:00,
2013-06-21 01:15:00,58.0,49.7,30.42,WNW,292,0.0,3.0,74,0.00,,,-99.99,Weather View 32 v60,2013-06-21 05:15:00,
2013-06-21 01:20:00,58.0,49.7,30.42,WNW,292,0.0,0.0,74,0.00,,,-99.99,Weather View 32 v60,2013-06-21 05:20:00,
2013-06-21 01:30:00,57.0,50.2,30.42,WNW,292,0.0,0.0,78,0.00,,,-99.99,Weather View 32 v60,2013-06-21 05:30:00,
2013-06-21 01:35:00,57.0,50.2,30.42,WNW,292,0.0,0.0,78,0.00,,,-99.99,Weather View 32 v60,2013-06-21 05:35:00,
2013-06-21 01:40:00,57.0,50.2,30.42,WNW,292,0.0,0.0,78,0.00,,,-99.99,Weather View 32 v60,2013-06-21 05:40:00,
2013-06-21 01:45:00,57.0,50.9,30.41,WNW,292,0.0,0.0,80,0.00,,,-99.99,Weather View 32 v60,2013-06-21 05:45:00,
2013-06-21 01:50:00,57.0,51.2,30.41,WNW,292,0.0,0.0,81,0.00,,,-99.99,Weather View 32 v60,2013-06-21 05:50:00,
2013-06-21 02:00:00,57.0,50.9,30.41,WNW,292,0.0,0.0,80,0.00,,,-99.99,Weather View 32 v60,2013-06-21 06:00:00,
2013-06-21 02:10:00,56.0,50.2,30.41,WNW,292,0.0,0.0,81,0.00,,,-99.99,Weather View 32 v60,2013-06-21 06:10:00,
2013-06-21 02:20:00,56.0,50.9,30.40,WNW,292,0.0,0.0,83,0.00,,,-99.99,Weather View 32 v60,2013-06-21 06:20:00,
2013-06-21 02:25:00,56.0,50.9,30.40,WNW,292,0.0,0.0,83,0.00,,,-99.99,Weather View 32 v60,2013-06-21 06:25:00,
2013-06-21 02:30:00,56.0,51.2,30.40,WNW,292,0.0,0.0,84,0.00,,,-99.99,Weather View 32 v60,2013-06-21 06:30:00,
2013-06-21 02:40:00,56.0,51.5,30.41,SW,225,0.0,0.0,85,0.00,,,-99.99,Weather View 32 v60,2013-06-21 06:40:00,
2013-06-21 02:45:00,56.0,51.5,30.41,SW,225,0.0,0.0,85,0.00,,,-99.99,Weather View 32 v60,2013-06-21 06:45:00,
2013-06-21 02:50:00,56.0,51.5,30.41,SW,225,0.0,0.0,85,0.00,,,-99.99,Weather View 32 v60,2013-06-21 06:50:00,
2013-06-21 02:55:00,56.0,51.9,30.41,SW,225,0.0,0.0,86,0.00,,,-99.99,Weather View 32 v60,2013-06-21 06:55:00,
2013-06-21 03:00:00,56.0,51.9,30.41,SW,225,0.0,0.0,86,0.00,,,-99.99,Weather View 32 v60,2013-06-21 07:00:00,
2013-06-21 03:10:00,56.0,52.5,30.41,WSW,247,0.0,0.0,88,0.00,,,-99.99,Weather View 32 v60,2013-06-21 07:10:00,
2013-06-21 03:15:00,56.0,52.5,30.41,WSW,247,0.0,0.0,88,0.00,,,-99.99,Weather View 32 v60,2013-06-21 07:15:00,
2013-06-21 03:20:00,56.0,52.5,30.41,WSW,247,0.0,0.0,88,0.00,,,-99.99,Weather View 32 v60,2013-06-21 07:20:00,
2013-06-21 03:25:00,56.0,52.5,30.41,WSW,247,0.0,0.0,88,0.00,,,-99.99,Weather View 32 v60,2013-06-21 07:25:00,
2013-06-21 03:35:00,55.0,51.5,30.41,WSW,247,0.0,0.0,88,0.00,,,-99.99,Weather View 32 v60,2013-06-21 07:35:00,
2013-06-21 03:40:00,55.0,51.5,30.41,WSW,247,0.0,0.0,88,0.00,,,-99.99,Weather View 32 v60,2013-06-21 07:40:00,
2013-06-21 03:45:00,55.0,51.8,30.41,WSW,247,0.0,0.0,89,0.00,,,-99.99,Weather View 32 v60,2013-06-21 07:45:00,
2013-06-21 03:55:00,55.0,51.8,30.41,WSW,247,0.0,0.0,89,0.00,,,-99.99,Weather View 32 v60,2013-06-21 07:55:00,
2013-06-21 04:00:00,54.0,50.8,30.41,WSW,247,0.0,0.0,89,0.00,,,-99.99,Weather View 32 v60,2013-06-21 08:00:00,
2013-06-21 04:05:00,54.0,51.1,30.41,WSW,247,0.0,0.0,90,0.00,,,-99.99,Weather View 32 v60,2013-06-21 08:05:00,
2013-06-21 04:10:00,54.0,51.4,30.41,WSW,247,0.0,0.0,91,0.00,,,-99.99,Weather View 32 v60,2013-06-21 08:10:00,
2013-06-21 04:15:00,54.0,51.4,30.41,WSW,247,0.0,0.0,91,0.00,,,-99.99,Weather View 32 v60,2013-06-21 08:15:00,
2013-06-21 04:25:00,54.0,51.4,30.41,WSW,247,0.0,0.0,91,0.00,,,-99.99,Weather View 32 v60,2013-06-21 08:25:00,
2013-06-21 04:30:00,54.0,51.7,30.41,WSW,247,0.0,0.0,92,0.00,,,-99.99,Weather View 32 v60,2013-06-21 08:30:00,
2013-06-21 04:35:00,54.0,51.7,30.41,WSW,247,0.0,0.0,92,0.00,,,-99.99,Weather View 32 v60,2013-06-21 08:35:00,
2013-06-21 04:45:00,54.0,52.0,30.41,WSW,247,0.0,0.0,93,0.00,,,-99.99,Weather View 32 v60,2013-06-21 08:45:00,
2013-06-21 04:50:00,53.0,50.7,30.41,WSW,247,0.0,0.0,92,0.00,,,-99.99,Weather View 32 v60,2013-06-21 08:50:00,
2013-06-21 04:55:00,53.0,50.7,30.42,WSW,247,0.0,0.0,92,0.00,,,-99.99,Weather View 32 v60,2013-06-21 08:55:00,
2013-06-21 05:00:00,53.0,50.7,30.42,WSW,247,0.0,0.0,92,0.00,,,-99.99,Weather View 32 v60,2013-06-21 09:00:00,
2013-06-21 05:10:00,53.0,50.7,30.41,WSW,247,0.0,0.0,92,0.00,,,-99.99,Weather View 32 v60,2013-06-21 09:10:00,
2013-06-21 05:15:00,54.0,52.3,30.41,WSW,247,0.0,0.0,94,0.00,,,-99.99,Weather View 32 v60,2013-06-21 09:15:00,
2013-06-21 05:20:00,54.0,52.3,30.41,WSW,247,0.0,0.0,94,0.00,,,-99.99,Weather View 32 v60,2013-06-21 09:20:00,
2013-06-21 05:25:00,53.0,50.7,30.42,WSW,247,0.0,0.0,92,0.00,,,-99.99,Weather View 32 v60,2013-06-21 09:25:00,
2013-06-21 05:35:00,53.0,50.7,30.42,WSW,247,0.0,0.0,92,0.00,,,-99.99,Weather View 32 v60,2013-06-21 09:35:00,
2013-06-21 05:40:00,53.0,50.7,30.42,WSW,247,0.0,0.0,92,0.00,,,-99.99,Weather View 32 v60,2013-06-21 09:40:00,
2013-06-21 05:45:00,53.0,50.7,30.42,WSW,247,0.0,0.0,92,0.00,,,-99.99,Weather View 32 v60,2013-06-21 09:45:00,
2013-06-21 05:50:00,52.0,49.4,30.42,WSW,247,0.0,0.0,91,0.00,,,-99.99,Weather View 32 v60,2013-06-21 09:50:00,
2013-06-21 05:55:00,52.0,49.7,30.43,WSW,247,0.0,0.0,92,0.00,,,-99.99,Weather View 32 v60,2013-06-21 09:55:00,
2013-06-21 06:00:00,53.0,50.7,30.43,WSW,247,0.0,0.0,92,0.00,,,-99.99,Weather View 32 v60,2013-06-21 10:00:00,
2013-06-21 06:10:00,54.0,50.8,30.43,WSW,247,0.0,0.0,89,0.00,,,-99.99,Weather View 32 v60,2013-06-21 10:10:00,
2013-06-21 06:15:00,55.0,51.5,30.43,WSW,247,0.0,0.0,88,0.00,,,-99.99,Weather View 32 v60,2013-06-21 10:15:00,
2013-06-21 06:20:00,56.0,52.8,30.43,WSW,247,0.0,0.0,89,0.00,,,-99.99,Weather View 32 v60,2013-06-21 10:20:00,
2013-06-21 06:25:00,56.0,52.8,30.43,WSW,247,0.0,0.0,89,0.00,,,-99.99,Weather View 32 v60,2013-06-21 10:25:00,
2013-06-21 06:35:00,58.0,55.1,30.42,WSW,247,0.0,0.0,90,0.00,,,-99.99,Weather View 32 v60,2013-06-21 10:35:00,
2013-06-21 06:40:00,59.0,56.1,30.42,WSW,247,0.0,0.0,90,0.00,,,-99.99,Weather View 32 v60,2013-06-21 10:40:00,
2013-06-21 06:45:00,59.0,55.1,30.42,WSW,247,0.0,0.0,87,0.00,,,-99.99,Weather View 32 v60,2013-06-21 10:45:00,
2013-06-21 06:55:00,60.0,55.5,30.41,WSW,247,0.0,0.0,85,0.00,,,-99.99,Weather View 32 v60,2013-06-21 10:55:00,
2013-06-21 07:00:00,61.0,56.1,30.41,WSW,247,0.0,0.0,84,0.00,,,-99.99,Weather View 32 v60,2013-06-21 11:00:00,
2013-06-21 07:05:00,61.0,55.1,30.41,WSW,247,0.0,0.0,81,0.00,,,-99.99,Weather View 32 v60,2013-06-21 11:05:00,
2013-06-21 07:15:00,61.0,55.1,30.41,WSW,247,0.0,0.0,81,0.00,,,-99.99,Weather View 32 v60,2013-06-21 11:15:00,
2013-06-21 07:20:00,61.0,54.8,30.41,WSW,247,0.0,0.0,80,0.00,,,-99.99,Weather View 32 v60,2013-06-21 11:20:00,
2013-06-21 07:25:00,61.0,54.8,30.41,WSW,247,0.0,0.0,80,0.00,,,-99.99,Weather View 32 v60,2013-06-21 11:25:00,
2013-06-21 07:30:00,60.0,53.5,30.41,WSW,247,0.0,0.0,79,0.00,,,-99.99,Weather View 32 v60,2013-06-21 11:30:00,
2013-06-21 07:40:00,61.0,54.4,30.41,WSW,247,0.0,0.0,79,0.00,,,-99.99,Weather View 32 v60,2013-06-21 11:40:00,
2013-06-21 07:45:00,63.0,55.7,30.42,WSW,247,0.0,0.0,77,0.00,,,-99.99,Weather View 32 v60,2013-06-21 11:45:00,
2013-06-21 07:55:00,65.0,55.3,30.41,WSW,247,0.0,0.0,71,0.00,,,-99.99,Weather View 32 v60,2013-06-21 11:55:00,
2013-06-21 08:00:00,66.0,56.7,30.41,WSW,247,0.0,0.0,72,0.00,,,-99.99,Weather View 32 v60,2013-06-21 12:00:00,
2013-06-21 08:05:00,67.0,56.9,30.41,West,270,0.0,0.0,70,0.00,,,-99.99,Weather View 32 v60,2013-06-21 12:05:00,
2013-06-21 08:10:00,68.0,57.8,30.41,West,270,0.0,0.0,70,0.00,,,-99.99,Weather View 32 v60,2013-06-21 12:10:00,
2013-06-21 08:17:00,68.0,56.2,30.40,NW,315,0.0,0.0,66,0.00,,,-99.99,Weather View 32 v60,2013-06-21 12:17:00,
2013-06-21 08:25:00,69.0,56.7,30.39,West,270,0.0,0.0,65,0.00,,,-99.99,Weather View 32 v60,2013-06-21 12:25:00,
2013-06-21 08:30:00,70.0,56.8,30.39,WNW,292,0.0,0.0,63,0.00,,,-99.99,Weather View 32 v60,2013-06-21 12:30:00,
2013-06-21 08:40:00,71.0,55.9,30.40,NNW,337,0.0,4.0,59,0.00,,,-99.99,Weather View 32 v60,2013-06-21 12:40:00,
2013-06-21 08:45:00,72.0,57.3,30.39,West,270,0.0,4.0,60,0.00,,,-99.99,Weather View 32 v60,2013-06-21 12:45:00,
2013-06-21 08:50:00,73.0,57.3,30.39,NNW,337,0.0,4.0,58,0.00,,,-99.99,Weather View 32 v60,2013-06-21 12:50:00,
2013-06-21 09:00:00,73.0,56.8,30.38,West,270,0.0,5.0,57,0.00,,,-99.99,Weather View 32 v60,2013-06-21 13:00:00,
2013-06-21 09:05:00,74.0,58.2,30.38,West,270,0.0,6.0,58,0.00,,,-99.99,Weather View 32 v60,2013-06-21 13:05:00,
2013-06-21 09:10:00,75.0,56.7,30.38,SW,225,0.0,6.0,53,0.00,,,-99.99,Weather View 32 v60,2013-06-21 13:10:00,
2013-06-21 09:15:00,74.0,55.2,30.37,SW,225,0.0,6.0,52,0.00,,,-99.99,Weather View 32 v60,2013-06-21 13:15:00,
2013-06-21 09:25:00,75.0,54.5,30.37,NW,315,2.0,6.0,49,0.00,,,-99.99,Weather View 32 v60,2013-06-21 13:25:00,
2013-06-21 09:30:00,75.0,56.1,30.37,WSW,247,0.0,6.0,52,0.00,,,-99.99,Weather View 32 v60,2013-06-21 13:30:00,
2013-06-21 09:35:00,76.0,55.4,30.37,WSW,247,0.0,6.0,49,0.00,,,-99.99,Weather View 32 v60,2013-06-21 13:35:00,
2013-06-21 09:40:00,76.0,54.8,30.37,West,270,0.0,6.0,48,0.00,,,-99.99,Weather View 32 v60,2013-06-21 13:40:00,
2013-06-21 09:45:00,76.0,56.0,30.37,NNE,22,3.0,6.0,50,0.00,,,-99.99,Weather View 32 v60,2013-06-21 13:45:00,
2013-06-21 09:50:00,76.0,54.2,30.37,SW,225,0.0,6.0,47,0.00,,,-99.99,Weather View 32 v60,2013-06-21 13:50:00,
2013-06-21 10:00:00,77.0,53.3,30.35,NE,45,0.0,7.0,44,0.00,,,-99.99,Weather View 32 v60,2013-06-21 14:00:00,
2013-06-21 10:05:00,77.0,54.6,30.36,NW,315,3.0,7.0,46,0.00,,,-99.99,Weather View 32 v60,2013-06-21 14:05:00,
2013-06-21 10:10:00,77.0,54.6,30.36,West,270,0.0,7.0,46,0.00,,,-99.99,Weather View 32 v60,2013-06-21 14:10:00,
2013-06-21 10:18:00,77.0,54.0,30.36,West,270,0.0,7.0,45,0.00,,,-99.99,Weather View 32 v60,2013-06-21 14:18:00,
2013-06-21 10:25:00,78.0,54.9,30.36,West,270,0.0,7.0,45,0.00,,,-99.99,Weather View 32 v60,2013-06-21 14:25:00,
2013-06-21 10:30:00,78.0,55.5,30.36,NW,315,0.0,7.0,46,0.00,,,-99.99,Weather View 32 v60,2013-06-21 14:30:00,
2013-06-21 10:40:00,79.0,55.2,30.35,West,270,0.0,7.0,44,0.00,,,-99.99,Weather View 32 v60,2013-06-21 14:40:00,
2013-06-21 10:45:00,79.0,54.5,30.36,NNE,22,4.0,7.0,43,0.00,,,-99.99,Weather View 32 v60,2013-06-21 14:45:00,
2013-06-21 10:55:00,77.0,54.6,30.36,NW,315,0.0,8.0,46,0.01,,,-99.99,Weather View 32 v60,2013-06-21 14:55:00,
2013-06-21 11:00:00,78.0,55.5,30.36,West,270,0.0,8.0,46,0.01,,,-99.99,Weather View 32 v60,2013-06-21 15:00:00,
2013-06-21 11:10:00,79.0,54.5,30.37,East,90,2.0,8.0,43,0.01,,,-99.99,Weather View 32 v60,2013-06-21 15:10:00,
2013-06-21 11:19:00,78.0,55.5,30.37,West,270,0.0,8.0,46,0.01,,,-99.99,Weather View 32 v60,2013-06-21 15:19:00,
2013-06-21 11:25:00,79.0,55.8,30.37,NW,315,0.0,8.0,45,0.01,,,-99.99,Weather View 32 v60,2013-06-21 15:25:00,
2013-06-21 11:30:00,81.0,58.8,30.37,SW,225,3.0,8.0,47,0.01,,,-99.99,Weather View 32 v60,2013-06-21 15:30:00,
2013-06-21 11:40:00,80.0,56.1,30.36,SW,225,0.0,8.0,44,0.01,,,-99.99,Weather View 32 v60,2013-06-21 15:40:00,
2013-06-21 11:45:00,80.0,57.3,30.36,NW,315,0.0,8.0,46,0.01,,,-99.99,Weather View 32 v60,2013-06-21 15:45:00,
2013-06-21 11:50:00,80.0,57.3,30.36,East,90,0.0,8.0,46,0.01,,,-99.99,Weather View 32 v60,2013-06-21 15:50:00,
2013-06-21 12:00:00,81.0,55.7,30.36,SW,225,1.0,7.0,42,0.00,,,-99.99,Weather View 32 v60,2013-06-21 16:00:00,
2013-06-21 12:10:00,80.0,55.4,30.37,WNW,292,0.0,7.0,43,0.00,,,-99.99,Weather View 32 v60,2013-06-21 16:10:00,
2013-06-21 12:20:00,80.0,57.9,30.37,SW,225,0.0,8.0,47,0.00,,,-99.99,Weather View 32 v60,2013-06-21 16:20:00,
2013-06-21 12:25:00,80.0,57.9,30.37,West,270,0.0,8.0,47,0.00,,,-99.99,Weather View 32 v60,2013-06-21 16:25:00,
2013-06-21 12:35:00,80.0,57.3,30.37,West,270,4.0,8.0,46,0.00,,,-99.99,Weather View 32 v60,2013-06-21 16:35:00,
2013-06-21 12:40:00,80.0,57.9,30.37,East,90,3.0,8.0,47,0.00,,,-99.99,Weather View 32 v60,2013-06-21 16:40:00,
2013-06-21 12:50:00,79.0,55.2,30.37,SW,225,0.0,8.0,44,0.00,,,-99.99,Weather View 32 v60,2013-06-21 16:50:00,
2013-06-21 12:55:00,79.0,55.8,30.37,East,90,3.0,8.0,45,0.00,,,-99.99,Weather View 32 v60,2013-06-21 16:55:00,
2013-06-21 13:00:00,80.0,57.9,30.37,West,270,0.0,8.0,47,0.00,,,-99.99,Weather View 32 v60,2013-06-21 17:00:00,
2013-06-21 13:15:00,80.0,56.1,30.36,East,90,0.0,9.0,44,0.00,,,-99.99,Weather View 32 v60,2013-06-21 17:15:00,
2013-06-21 13:20:00,80.0,56.7,30.36,East,90,5.0,9.0,45,0.00,,,-99.99,Weather View 32 v60,2013-06-21 17:20:00,
2013-06-21 13:35:00,80.0,56.7,30.35,East,90,4.0,9.0,45,0.00,,,-99.99,Weather View 32 v60,2013-06-21 17:35:00,
2013-06-21 13:40:00,80.0,57.9,30.35,East,90,0.0,9.0,47,0.00,,,-99.99,Weather View 32 v60,2013-06-21 17:40:00,
2013-06-21 13:50:00,81.0,57.6,30.35,NE,45,0.0,9.0,45,0.00,,,-99.99,Weather View 32 v60,2013-06-21 17:50:00,
2013-06-21 13:55:00,82.0,56.6,30.34,SW,225,5.0,9.0,42,0.00,,,-99.99,Weather View 32 v60,2013-06-21 17:55:00,
2013-06-21 14:05:00,82.0,58.5,30.34,West,270,0.0,9.0,45,0.00,,,-99.99,Weather View 32 v60,2013-06-21 18:05:00,
2013-06-21 14:10:00,82.0,55.9,30.34,East,90,1.0,9.0,41,0.00,,,-99.99,Weather View 32 v60,2013-06-21 18:10:00,
2013-06-21 14:20:00,81.0,57.6,30.33,WNW,292,0.0,9.0,45,0.00,,,-99.99,Weather View 32 v60,2013-06-21 18:20:00,
2013-06-21 14:21:00,81.0,57.6,30.33,WNW,292,0.0,9.0,45,0.00,,,-99.99,Weather View 32 v60,2013-06-21 18:21:00,
2013-06-21 14:25:00,81.0,57.6,30.33,NNE,22,1.0,8.0,45,0.00,,,-99.99,Weather View 32 v60,2013-06-21 18:25:00,
2013-06-21 14:35:00,82.0,56.6,30.34,SW,225,0.0,7.0,42,0.00,,,-99.99,Weather View 32 v60,2013-06-21 18:35:00,
2013-06-21 14:45:00,83.0,56.8,30.34,West,270,0.0,7.0,41,0.00,,,-99.99,Weather View 32 v60,2013-06-21 18:45:00,
2013-06-21 14:50:00,83.0,57.5,30.34,East,90,4.0,7.0,42,0.00,,,-99.99,Weather View 32 v60,2013-06-21 18:50:00,
2013-06-21 14:55:00,82.0,56.6,30.33,WSW,247,0.0,7.0,42,0.00,,,-99.99,Weather View 32 v60,2013-06-21 18:55:00,
2013-06-21 15:00:00,83.0,56.1,30.33,North,360,3.0,7.0,40,0.00,,,-99.99,Weather View 32 v60,2013-06-21 19:00:00,
2013-06-21 15:05:00,82.0,56.6,30.33,WNW,292,0.0,7.0,42,0.00,,,-99.99,Weather View 32 v60,2013-06-21 19:05:00,
2013-06-21 15:15:00,82.0,55.2,30.33,WSW,247,0.0,7.0,40,0.00,,,-99.99,Weather View 32 v60,2013-06-21 19:15:00,
2013-06-21 15:21:00,83.0,56.1,30.33,SW,225,0.0,7.0,40,0.00,,,-99.99,Weather View 32 v60,2013-06-21 19:21:00,
2013-06-21 15:30:00,83.0,56.1,30.32,East,90,0.0,7.0,40,0.00,,,-99.99,Weather View 32 v60,2013-06-21 19:30:00,
2013-06-21 15:35:00,83.0,57.5,30.32,NE,45,0.0,7.0,42,0.00,,,-99.99,Weather View 32 v60,2013-06-21 19:35:00,
2013-06-21 15:40:00,84.0,55.6,30.32,West,270,3.0,7.0,38,0.00,,,-99.99,Weather View 32 v60,2013-06-21 19:40:00,
2013-06-21 15:45:00,84.0,56.3,30.32,SW,225,4.0,7.0,39,0.00,,,-99.99,Weather View 32 v60,2013-06-21 19:45:00,
2013-06-21 15:55:00,83.0,56.1,30.31,WNW,292,0.0,7.0,40,0.00,,,-99.99,Weather View 32 v60,2013-06-21 19:55:00,
2013-06-21 16:00:00,82.0,55.2,30.31,West,270,0.0,7.0,40,0.00,,,-99.99,Weather View 32 v60,2013-06-21 20:00:00,
2013-06-21 16:05:00,82.0,55.9,30.31,East,90,3.0,8.0,41,0.00,,,-99.99,Weather View 32 v60,2013-06-21 20:05:00,
2013-06-21 16:20:00,83.0,56.1,30.31,West,270,0.0,8.0,40,0.00,,,-99.99,Weather View 32 v60,2013-06-21 20:20:00,
2013-06-21 16:22:00,83.0,56.1,30.31,West,270,0.0,8.0,40,0.00,,,-99.99,Weather View 32 v60,2013-06-21 20:22:00,
2013-06-21 16:30:00,83.0,55.4,30.31,West,270,5.0,8.0,39,0.00,,,-99.99,Weather View 32 v60,2013-06-21 20:30:00,
2013-06-21 16:35:00,83.0,55.4,30.31,SW,225,0.0,8.0,39,0.00,,,-99.99,Weather View 32 v60,2013-06-21 20:35:00,
2013-06-21 16:50:00,83.0,56.1,30.31,SW,225,4.0,8.0,40,0.00,,,-99.99,Weather View 32 v60,2013-06-21 20:50:00,
2013-06-21 16:55:00,83.0,56.1,30.30,SW,225,0.0,8.0,40,0.00,,,-99.99,Weather View 32 v60,2013-06-21 20:55:00,
2013-06-21 17:00:00,83.0,56.1,30.30,SW,225,0.0,8.0,40,0.00,,,-99.99,Weather View 32 v60,2013-06-21 21:00:00,
2013-06-21 17:10:00,83.0,56.1,30.29,WNW,292,0.0,7.0,40,0.00,,,-99.99,Weather View 32 v60,2013-06-21 21:10:00,
2013-06-21 17:15:00,83.0,56.1,30.29,SW,225,4.0,7.0,40,0.00,,,-99.99,Weather View 32 v60,2013-06-21 21:15:00,